SCP
0 0 0 0 0 0 0 0 0 0 0 0 0 0 0 0 0 0 0 0 0 0 0 0 0 0 0 0 0 0 0 0 0 0 0 0 0 0 0 0 0 0 0
0 0 0 0 0 0 0 0 0 0 0 0 0 0 0 0 0 0 0 0 0 0 0 0 0 0 0 0 0 0 0 0 0 0 0 0 0 0 0 0 0 0 0
0 0 0 0 0 0 0 0 0 0 0 0 0 0 0 0 0 0 0 0 0 0 0 0 0 0 0 0 0 0 0 0 0 0 0 0 0 0 0 0 0 0 0
0 0 0 0 0 0 0 0 0 0 0 0 0 0 0 0 0 0 0 0 0 0 0 0 0 0 0 0 0 0 0 0 0 0 0 0 0 0 0 0 0 0 0
0 0 0 0 0 0 0 0 0 0 0 0 0 0 0 0 0 0 0 0 0 0 0 0 0 0 0 0 0 0 0 0 0 0 0 0 0 0 0 0 0 0 0
0 0 0 0 0 0 0 0 0 0 0 0 0 0 0 0 0 0 0 0 0 0 0 0 0 0 0 0 0 0 0 0 0 0 0 0 0 0 0 0 0 0 0
0 0 0 0 0 0 0 0 0 0 0 0 0 0 0 0 0 0 0 0 0 0 0 0 0 0 0 0 0 0 0 0 0 0 0 0 0 0 0 0 0 0 0
0 0 0 0 0 0 0 0 0 0 0 0 0 0 0 0 0 0 0 0 0 0 0 0 0 0 0 0 0 0 0 0 0 0 0 0 0 0 0 0 0 0 0
0 0 0 0 0 0 0 0 0 0 0 0 0 0 0 0 0 0 0 0 0 0 0 0 0 0 0 0 0 0 0 0 0 0 0 0 0 0 0 0 0 0 0
0 0 0 0 0 0 0 0 0 0 0 0 0 0 0 0 0 0 0 0 0 0 0 0 0 0 0 0 0 0 0 0 0 0 0 0 0 0 0 0 0 0 0
0 0 0 0 0 0 0 0 0 0 0 0 0 0 0 0 0 0 0 0 0 0 0 0 0 0 0 0 0 0 0 0 0 0 0 0 0 0 0 0 0 0 0
0 0 0 0 0 0 0 0 0 0 0 0 0 0 0 0 0 0 0 0 0 0 0 0 0 0 0 0 0 0 0 0 0 0 0 0 0 0 0 0 0 0 0
0 0 0 0 0 0 0 0 0 0 0 0 0 0 0 0 0 0 0 0 0 0 0 0 0 0 0 0 0 0 0 0 0 0 0 0 0 0 0 0 0 0 0
0 0 0 0 0 0 0 0 0 0 0 0 0 0 0 0 0 0 0 0 0 0 0 0 0 0 0 0 0 0 0 0 0 0 0 0 0 0 0 0 0 0 0
0 0 0 0 0 0 0 0 0 0 0 0 0 0 0 0 0 0 0 0 0 0 0 0 0 0 0 0 0 0 0 0 0 0 0 0 0 0 0 0 0 0 0
0 0 0 0 0 0 0 0 0 0 0 0 0 0 0 0 0 0 0 0 0 0 0 0 0 0 0 0 0 0 0 0 0 0 0 0 0 0 0 0 0 0 0
0 0 0 0 0 0 0 0 0 0 0 0 0 0 0 0 0 0 0 0 0 0 0 0 0 0 0 0 0 0 0 0 0 0 0 0 0 0 0 0 0 0 0
0 0 0 0 0 0 0 0 0 0 0 0 0 0 0 0 0 0 0 0 0 0 0 0 0 0 0 0 0 0 0 0 0 0 0 0 0 0 0 0 0 0 0
0 0 0 0 0 0 0 0 0 0 0 0 0 0 0 0 0 0 0 0 0 0 0 0 0 0 0 0 0 0 0 0 0 0 0 0 0 0 0 0 0 0 0
0 0 0 0 0 0 0 0 0 0 0 0 0 0 0 0 0 0 0 0 0 0 0 0 0 0 0 0 0 0 0 0 0 0 0 0 0 0 0 0 0 0 0
0 0 0 0 0 0 0 0 0 0 0 0 0 0 0 0 0 0 0 0 0 0 0 0 0 0 0 0 0 0 0 0 0 0 0 0 0 0 0 0 0 0 0
0 0 0 0 0 0 0 0 0 0 0 0 0 0 0 0 0 0 0 0 0 0 0 0 0 0 0 0 0 0 0 0 0 0 0 0 0 0 0 0 0 0 0
0 0 0 0 0 0 0 0 0 0 0 0 0 0 0 0 0 0 0 0 0 0 0 0 0 0 0 0 0 0 0 0 0 0 0 0 0 0 0 0 0 0 0
0 0 0 0 0 0 0 0 0 0 0 0 0 0 0 0 0 0 0 0 0 0 0 0 0 0 0 0 0 0 0 0 0 0 0 0 0 0 0 0 0 0 0
0 0 0 0 0 0 0 0 0 0 0 0 0 0 0 0 0 0 0 0 0 0 0 0 0 0 0 0 0 0 0 0 0 0 0 0 0 0 0 0 0 0 0
0 0 0 0 0 0 0 0 0 0 0 0 0 0 0 0 0 0 0 0 0 0 0 0 0 0 0 0 0 0 0 0 0 0 0 0 0 0 0 0 0 0 0
Wind_Speed
14 14 14 13 12 12 12 12 12 10 11 11 10 10 9 8 7 7 6 6 6 5 4 4 3 2 1 1 1 1 1 2 7 7 4 6 7 9 11 9 10 10 11
14 14 15 14 13 13 12 12 11 11 10 10 10 10 9 8 7 7 7 6 6 5 4 3 2 1 0 0 1 2 2 3 5 11 9 8 9 10 10 11 11 11 10
14 15 15 15 15 14 14 13 12 12 11 10 10 10 9 9 7 7 7 6 5 4 3 2 1 1 1 1 2 3 3 4 4 8 11 9 9 9 11 11 10 8 11
15 16 16 16 16 15 14 13 12 12 12 11 10 9 9 8 8 7 7 6 5 4 3 2 2 2 2 2 3 3 3 4 5 7 10 10 10 10 9 11 12 8 10
16 16 16 14 13 13 13 12 11 11 11 10 10 9 8 7 7 8 7 6 5 4 3 2 2 2 4 3 3 3 3 4 5 7 9 10 10 11 11 11 14 13 11
16 16 14 14 14 14 13 13 12 11 10 10 10 10 9 7 11 13 9 6 6 5 4 3 3 3 4 6 7 7 7 6 6 7 8 11 13 13 12 12 14 15 13
15 14 14 15 14 14 13 13 13 12 11 10 10 9 9 9 14 13 12 7 6 5 4 4 3 3 3 4 7 9 9 12 13 10 10 12 14 14 15 16 14 15 15
15 14 15 15 14 14 14 13 12 10 11 10 10 10 8 10 15 14 12 7 5 5 5 5 4 4 5 6 6 6 6 7 10 8 8 10 11 12 12 13 14 13 14
17 17 17 16 16 15 15 14 11 10 9 9 9 10 9 10 15 15 13 6 5 6 6 5 6 6 9 10 6 5 6 6 10 13 15 16 20 20 16 9 8 9 12
19 18 16 16 17 17 16 12 9 9 9 9 9 9 9 8 14 16 15 6 6 5 5 6 8 9 11 11 6 4 5 6 5 6 10 12 12 13 15 9 8 9 10
15 14 15 16 16 15 13 10 9 9 8 8 8 7 7 8 13 17 17 8 7 6 6 6 7 12 12 11 8 4 8 6 1 4 6 7 8 7 8 8 8 9 10
13 14 15 15 13 11 13 11 10 10 10 9 7 6 6 7 10 15 19 17 13 7 7 6 7 12 12 11 7 8 11 6 2 3 5 6 7 7 8 9 11 11 12
14 14 13 13 12 12 13 13 11 10 9 8 8 8 7 7 9 18 19 20 19 10 7 11 12 13 11 7 8 10 4 1 2 3 5 6 7 8 9 9 10 10 12
14 13 12 13 12 10 10 10 11 11 10 9 10 10 8 7 8 8 8 10 14 12 8 8 12 12 9 6 4 5 2 3 3 5 6 6 7 7 7 8 9 9 10
11 10 10 10 11 10 10 10 12 11 13 13 11 10 10 10 14 18 12 9 7 7 4 3 3 3 3 3 3 3 3 3 4 4 4 6 6 7 7 7 7 8 8
10 9 8 8 8 8 8 6 14 12 16 18 15 12 9 12 13 19 22 21 20 17 10 5 6 6 6 6 5 4 4 4 4 4 4 5 6 7 8 7 7 8 9
9 9 7 8 8 8 8 9 7 9 15 18 19 19 17 15 16 18 19 20 19 18 11 7 7 7 7 6 5 5 4 4 3 4 5 5 5 6 7 8 8 8 9
6 8 8 8 8 8 8 8 7 8 8 7 12 19 19 18 17 17 18 16 11 12 8 7 7 7 6 6 5 5 5 4 4 4 5 5 5 5 6 7 7 8 10
5 5 5 5 5 6 6 5 5 6 6 5 2 6 11 14 15 17 16 10 8 8 7 6 5 5 5 5 5 5 5 5 5 4 4 5 5 5 6 7 8 10 9
3 5 5 4 4 4 5 5 5 6 5 5 6 5 4 4 6 8 8 6 6 6 6 6 6 6 6 5 5 5 5 5 5 5 5 5 5 5 6 8 8 8 8
3 3 5 4 4 5 5 5 5 5 6 6 5 6 10 7 7 7 6 5 5 6 5 5 5 6 6 5 5 6 6 6 5 5 5 5 5 5 5 6 7 8 8
2 2 2 3 3 3 4 4 4 4 5 5 3 4 11 6 5 5 5 5 4 4 4 4 5 5 5 6 6 6 6 6 6 5 5 5 5 5 5 6 7 7 7
2 2 2 1 2 3 3 3 3 4 4 4 4 4 4 5 5 5 5 5 4 4 4 4 5 5 5 5 5 6 7 7 6 5 5 5 5 5 5 6 8 8 8
2 2 2 2 2 2 2 3 3 3 4 4 4 4 5 5 5 5 5 4 4 4 4 4 5 7 8 6 5 6 6 7 6 6 7 7 7 6 6 7 8 8 8
2 2 2 1 2 2 2 2 3 3 3 4 4 4 4 4 4 4 4 4 4 5 6 6 5 6 9 10 8 7 9 12 10 6 6 6 8 8 8 8 8 8 8
2 1 1 1 1 2 2 2 3 3 3 4 4 4 4 4 4 4 4 4 4 5 5 5 7 8 9 8 9 11 12 13 13 12 8 7 8 8 8 7 8 8 8
Wind_Direction
164 161 158 157 154 152 150 151 149 145 147 145 141 136 132 129 128 123 119 117 110 103 95 93 84 70 69 31 349 316 292 275 283 293 297 314 311 312 314 309 309 307 312
164 160 160 157 156 155 155 154 151 149 150 147 144 140 139 138 138 135 131 126 122 118 113 111 107 87 90 271 275 280 276 268 279 300 308 315 313 311 309 310 312 312 308
164 162 161 163 163 161 160 157 155 153 151 149 148 147 146 146 144 141 136 133 130 132 138 148 164 190 231 246 264 262 264 283 279 293 304 310 310 311 312 309 305 297 303
168 168 169 170 168 164 161 159 159 157 156 155 152 149 149 149 150 148 144 140 141 147 160 175 192 210 236 255 266 261 278 292 295 297 301 307 309 310 309 315 315 309 307
174 175 174 168 163 160 160 160 159 160 159 155 150 149 150 153 159 157 152 153 154 161 176 195 211 227 258 263 277 275 284 283 290 297 300 304 308 316 317 315 311 311 302
178 177 169 166 165 165 164 162 161 161 158 156 158 158 161 167 173 168 161 159 163 172 187 202 228 230 250 284 293 291 288 289 288 289 296 300 306 310 311 311 311 312 311
178 174 171 169 169 168 166 166 168 166 162 163 165 165 169 178 178 177 174 161 169 180 193 206 223 228 236 257 276 286 290 290 293 294 295 299 305 310 311 311 310 309 306
178 176 174 172 171 168 170 173 171 168 170 170 171 172 171 187 186 184 180 166 174 193 204 211 227 239 244 252 254 263 267 276 286 292 291 297 302 306 307 308 309 306 300
183 182 178 175 173 173 177 177 172 170 174 175 173 174 178 190 195 191 183 167 189 204 212 218 228 237 254 265 266 264 275 282 296 300 304 307 310 313 315 313 312 310 308
189 183 177 175 177 180 180 174 171 173 176 174 176 181 184 190 200 198 191 178 195 205 216 228 233 237 251 262 257 252 270 284 297 310 310 309 309 307 312 312 306 304 307
179 173 175 178 181 179 175 171 168 168 167 176 178 184 190 194 207 207 204 189 197 201 212 219 229 242 249 259 267 237 268 293 313 305 303 301 301 301 303 303 301 299 297
165 171 176 177 176 174 172 171 171 171 173 180 182 190 201 200 208 219 217 212 203 198 211 217 226 242 250 259 268 274 290 310 323 300 298 298 301 304 306 306 301 296 289
162 170 172 172 175 175 177 175 174 177 183 187 192 203 207 204 216 219 223 222 218 205 211 221 230 242 251 259 270 280 295 293 278 282 287 292 297 300 304 303 302 297 291
165 169 169 172 176 176 180 180 182 185 190 192 198 207 208 203 207 212 216 223 225 223 216 225 238 246 246 240 255 273 258 243 250 266 279 288 297 300 300 305 308 312 308
162 164 169 175 177 181 187 194 194 199 197 195 201 199 197 210 215 205 198 206 206 210 188 183 202 221 234 239 239 244 244 246 252 259 275 288 295 301 303 308 304 309 307
159 167 172 173 175 180 185 200 221 212 218 221 215 207 216 221 219 213 213 214 215 214 204 201 212 217 224 229 235 243 241 242 248 260 269 278 290 298 303 306 305 307 309
168 170 171 174 178 182 185 192 204 221 224 227 226 222 218 221 223 218 216 216 216 213 213 209 213 216 220 221 224 226 235 241 246 257 266 274 283 291 297 301 306 309 309
167 171 174 181 183 187 192 197 197 195 204 223 229 228 226 224 224 222 218 214 217 215 214 214 214 214 215 217 220 225 235 243 244 250 258 266 272 282 290 294 300 303 309
171 174 176 176 179 184 186 189 197 203 210 210 200 231 228 226 224 224 217 213 212 214 214 214 212 210 213 215 218 221 226 235 242 247 254 260 265 272 281 287 294 299 304
179 178 169 169 173 178 181 189 197 203 209 212 214 210 192 192 210 216 214 211 214 218 217 218 216 214 215 216 217 219 226 234 239 242 248 254 258 263 275 284 289 296 301
166 170 168 167 180 185 188 196 199 199 207 216 219 211 205 208 216 214 213 213 215 218 217 219 221 218 218 216 215 220 227 236 236 238 245 250 255 263 270 276 283 287 293
140 153 165 178 179 184 190 192 195 203 210 214 213 228 231 218 216 220 221 224 222 221 215 214 220 220 216 214 214 218 226 235 237 236 241 247 252 260 268 275 280 287 293
115 130 139 152 162 169 174 182 192 201 208 209 205 207 223 221 216 220 224 226 224 224 218 214 223 230 226 221 216 216 226 234 232 225 233 246 251 256 261 270 277 284 289
98 122 139 149 156 174 185 193 200 204 208 210 213 218 223 226 221 223 224 224 224 227 225 222 227 236 238 234 228 225 231 238 235 230 228 237 248 254 257 264 271 276 282
91 109 131 155 174 188 198 204 209 211 215 219 220 223 225 228 230 230 228 226 227 233 236 232 233 238 243 243 241 237 244 252 249 231 221 227 240 246 251 259 265 272 276
84 108 137 161 183 197 207 217 222 223 225 227 226 225 226 229 232 233 231 230 234 239 243 239 237 240 244 246 249 251 253 254 248 238 224 224 233 241 244 252 259 265 271